Weather History for Orr, MN

Change the Weather History Date:

Wednesday, March 12, 2014

  Actual Average Record
Temperature  
Mean Temperature 7 °F -  
Max Temperature 23 °F 28 °F 51 °F (2007)
Min Temperature -9 °F 7 °F -20 °F (2009)
Degree Days  
Heating Degree Days 58    
Moisture  
Dew Point -9 °F    
Average Humidity 44    
Maximum Humidity 78    
Minimum Humidity 23    
Precipitation  
Precipitation 0.00 in - - ()
Sea Level Pressure  
Sea Level Pressure 30.03 in    
Wind  
Wind Speed 1 mph (South)    
Max Wind Speed 9 mph    
Max Gust Speed -    
Visibility 10 miles    
Events      
Averages and records for this station are not official NWS values.
T = Trace of Precipitation, MM = Missing Value Source: NWS Daily Summary

Daily Weather History Graph

Daily Weather History Graph

Search for Another Location

Airport:

Trip Planner

Search our weather history database for the weather conditions in past years. The results will help you decide how hot, cold, wet, or windy it might be!

Date:

Astronomy

Mar. 12, 2014 Rise Set
Actual Time 7:30 AM CDT 7:12 PM CDT
Civil Twilight 6:59 AM CDT 7:43 PM CDT
Nautical Twilight 6:23 AM CDT 8:19 PM CDT
Astronomical Twilight 5:47 AM CDT 8:56 PM CDT
Moon 3:31 PM CDT (3/12) 5:16 AM CDT (3/12)
Length of Visible Light 12h 43m
Length of Day
11h 41m
Waxing Gibbous, 85% of the Moon is Illuminated
Mar 12
Waxing Gibbous
Mar 16
Full
Mar 23
Last Quarter
Mar 30
New
Apr 7
First Quarter

Hourly Weather History & Observations

Time (CDT) Temp. Windchill Dew Point Humidity Pressure Visibility Wind Dir Wind Speed Gust Speed Precip Events Conditions
12:13 AM 10.4 °F - -4.0 °F 52% 30.06 in 10.0 mi Calm Calm - N/A   Clear
12:33 AM 10.4 °F - -5.8 °F 48% 30.07 in 10.0 mi Calm Calm - N/A   Clear
12:53 AM 10.4 °F - -5.8 °F 48% 30.07 in 10.0 mi Calm Calm - N/A   Clear
1:13 AM 8.6 °F - -7.6 °F 48% 30.07 in 10.0 mi Calm Calm - N/A   Clear
1:33 AM 8.6 °F - -7.6 °F 48% 30.07 in 10.0 mi Calm Calm - N/A   Clear
1:53 AM 8.6 °F - -7.6 °F 48% 30.07 in 10.0 mi Calm Calm - N/A   Clear
2:13 AM 6.8 °F - -7.6 °F 52% 30.07 in 10.0 mi Calm Calm - N/A   Clear
2:33 AM 6.8 °F - -7.6 °F 52% 30.07 in 10.0 mi Calm Calm - N/A   Clear
2:53 AM 5.0 °F - -7.6 °F 56% 30.08 in 10.0 mi Calm Calm - N/A   Clear
3:13 AM 3.2 °F - -7.6 °F 61% 30.08 in 10.0 mi Calm Calm - N/A   Clear
3:33 AM 3.2 °F - -7.6 °F 61% 30.08 in 10.0 mi Calm Calm - N/A   Clear
3:53 AM 3.2 °F - -7.6 °F 61% 30.07 in 10.0 mi Calm Calm - N/A   Clear
4:13 AM 1.4 °F - -9.4 °F 61% 30.07 in 10.0 mi Calm Calm - N/A   Clear
4:33 AM 1.4 °F - -9.4 °F 61% 30.08 in 10.0 mi Calm Calm - N/A   Clear
4:53 AM -0.4 °F - -9.4 °F 66% 30.08 in 10.0 mi Calm Calm - N/A   Clear
5:13 AM -0.4 °F - -9.4 °F 66% 30.09 in 10.0 mi Calm Calm - N/A   Clear
5:33 AM -2.2 °F - -9.4 °F 71% 30.09 in 10.0 mi Calm Calm - N/A   Clear
5:53 AM -4.0 °F - -9.4 °F 78% 30.09 in 10.0 mi Calm Calm - N/A   Clear
6:13 AM -4.0 °F - -9.4 °F 78% 30.08 in 10.0 mi Calm Calm - N/A   Clear
6:33 AM -2.2 °F - -9.4 °F 71% 30.09 in 10.0 mi Calm Calm - N/A   Clear
6:53 AM -4.0 °F - -11.2 °F 71% 30.09 in 10.0 mi Calm Calm - N/A   Clear
7:13 AM -5.8 °F - -11.2 °F 77% 30.09 in 10.0 mi Calm Calm - N/A   Clear
7:33 AM -5.8 °F - -11.2 °F 77% 30.09 in 10.0 mi Calm Calm - N/A   Clear
7:53 AM -9.4 °F - -14.8 °F 77% 30.11 in 10.0 mi Calm Calm - N/A   Clear
8:13 AM -5.8 °F - -11.2 °F 77% 30.11 in 10.0 mi Calm Calm - N/A   Clear
8:33 AM -5.8 °F - -11.2 °F 77% 30.11 in 10.0 mi Calm Calm - N/A   Clear
8:53 AM -0.4 °F - -9.4 °F 66% 30.11 in 10.0 mi Calm Calm - N/A   Clear
9:13 AM 3.2 °F - -9.4 °F 56% 30.11 in 10.0 mi Calm Calm - N/A   Clear
9:33 AM 5.0 °F -4.1 °F -9.4 °F 52% 30.11 in 10.0 mi SSE 4.6 mph - N/A   Clear
9:53 AM 5.0 °F - -11.2 °F 47% 30.11 in 10.0 mi Calm Calm - N/A   Clear
10:13 AM 6.8 °F - -9.4 °F 48% 30.11 in 10.0 mi Calm Calm - N/A   Clear
10:33 AM 8.6 °F - -9.4 °F 44% 30.10 in 10.0 mi Calm Calm - N/A   Clear
10:53 AM 10.4 °F - -9.4 °F 41% 30.10 in 10.0 mi Calm Calm - N/A   Clear
11:13 AM 10.4 °F - -11.2 °F 37% 30.09 in 10.0 mi Calm Calm - N/A   Clear
11:33 AM 12.2 °F - -11.2 °F 34% 30.09 in 10.0 mi Calm Calm - N/A   Clear
11:53 AM 14.0 °F 8.2 °F -13.0 °F 29% 30.09 in 10.0 mi SSE 3.5 mph - N/A   Clear
12:13 PM 14.0 °F - -11.2 °F 32% 30.08 in 10.0 mi Calm Calm - N/A   Clear
12:33 PM 15.8 °F - -11.2 °F 30% 30.08 in 10.0 mi Calm Calm - N/A   Clear
12:53 PM 15.8 °F 10.2 °F -13.0 °F 27% 30.07 in 10.0 mi SSE 3.5 mph - N/A   Clear
1:13 PM 17.6 °F 10.7 °F -14.8 °F 23% 30.06 in 10.0 mi SE 4.6 mph - N/A   Clear
1:33 PM 17.6 °F - -13.0 °F 25% 30.05 in 10.0 mi Calm Calm - N/A   Clear
1:53 PM 19.4 °F 11.5 °F -11.2 °F 25% 30.04 in 10.0 mi SSE 5.8 mph - N/A   Clear
2:13 PM 19.4 °F 12.8 °F -11.2 °F 25% 30.03 in 10.0 mi SSE 4.6 mph - N/A   Clear
2:33 PM 19.4 °F - -13.0 °F 23% 30.03 in 10.0 mi Calm Calm - N/A   Clear
2:53 PM 19.4 °F 14.3 °F -11.2 °F 25% 30.02 in 10.0 mi West 3.5 mph - N/A   Clear
3:13 PM 21.2 °F 14.9 °F -11.2 °F 24% 30.01 in 10.0 mi SSW 4.6 mph - N/A   Clear
3:33 PM 21.2 °F 16.4 °F -11.2 °F 24% 30.00 in 10.0 mi West 3.5 mph - N/A   Clear
3:53 PM 21.2 °F 13.6 °F -9.4 °F 26% 29.99 in 10.0 mi WSW 5.8 mph - N/A   Clear
4:13 PM 21.2 °F 16.4 °F -11.2 °F 24% 29.98 in 10.0 mi South 3.5 mph - N/A   Clear
4:33 PM 23.0 °F 14.7 °F -9.4 °F 24% 29.98 in 10.0 mi WSW 6.9 mph - N/A   Clear
4:53 PM 23.0 °F 13.1 °F -9.4 °F 24% 29.98 in 10.0 mi WSW 9.2 mph - N/A   Clear
5:13 PM 23.0 °F 17.0 °F -9.4 °F 24% 29.97 in 10.0 mi SW 4.6 mph - N/A   Clear
5:33 PM 23.0 °F 14.7 °F -9.4 °F 24% 29.97 in 10.0 mi SW 6.9 mph - N/A   Clear
5:53 PM 23.0 °F 13.9 °F -9.4 °F 24% 29.96 in 10.0 mi SW 8.1 mph - N/A   Clear
6:13 PM 23.0 °F 15.8 °F -9.4 °F 24% 29.96 in 10.0 mi WSW 5.8 mph - N/A   Clear
6:33 PM 21.2 °F 16.4 °F -9.4 °F 26% 29.96 in 10.0 mi SW 3.5 mph - N/A   Clear
6:53 PM 21.2 °F 14.9 °F -9.4 °F 26% 29.96 in 10.0 mi SSW 4.6 mph - N/A   Clear
7:13 PM 19.4 °F 14.3 °F -9.4 °F 28% 29.95 in 10.0 mi South 3.5 mph - N/A   Clear
7:33 PM 17.6 °F - -9.4 °F 30% 29.95 in 10.0 mi Calm Calm - N/A   Clear
7:53 PM 17.6 °F 12.3 °F -9.4 °F 30% 29.95 in 10.0 mi South 3.5 mph - N/A   Clear
8:13 PM 15.8 °F 10.2 °F -9.4 °F 32% 29.93 in 10.0 mi South 3.5 mph - N/A   Clear
8:33 PM 15.8 °F 8.6 °F -7.6 °F 35% 29.93 in 10.0 mi SSE 4.6 mph - N/A   Mostly Cloudy
8:53 PM 15.8 °F 10.2 °F -7.6 °F 35% 29.92 in 10.0 mi South 3.5 mph - N/A   Mostly Cloudy
9:13 PM 14.0 °F 8.2 °F -7.6 °F 38% 29.91 in 10.0 mi SSE 3.5 mph - N/A   Scattered Clouds
9:33 PM 14.0 °F 8.2 °F -7.6 °F 38% 29.91 in 10.0 mi SSE 3.5 mph - N/A   Clear
9:53 PM 14.0 °F 6.5 °F -7.6 °F 38% 29.90 in 10.0 mi SSE 4.6 mph - N/A   Clear
10:13 PM 14.0 °F 6.5 °F -7.6 °F 38% 29.89 in 10.0 mi SSE 4.6 mph - N/A   Clear
10:33 PM 14.0 °F 8.2 °F -7.6 °F 38% 29.87 in 10.0 mi SSE 3.5 mph - N/A   Clear
10:53 PM 12.2 °F 4.3 °F -5.8 °F 45% 29.87 in 10.0 mi SE 4.6 mph - N/A   Clear
11:13 PM 12.2 °F 4.3 °F -5.8 °F 45% 29.86 in 10.0 mi SSE 4.6 mph - N/A   Clear
11:33 PM 14.0 °F 5.1 °F -4.0 °F 45% 29.85 in 10.0 mi SSE 5.8 mph - N/A   Clear
11:53 PM 15.8 °F 6.1 °F -2.2 °F 45% 29.83 in 10.0 mi SSE 6.9 mph - N/A   Clear